| time (UTC) | temp C | wind direction | speed KPH | gust KPH | rain 1hr cm | rain 24hr cm | rain mn cm | humidity % | barometer mb |
| 20260503195805 | 20 | 0 | 3.2 | 0.0 | 0.00 | 0.00 | 0.00 | 34 | 1012.0 |
| 20260503192804 | 21 | 110 | 8.0 | 0.0 | 0.00 | 0.00 | 0.00 | 32 | 1012.0 |
| 20260503185805 | 22 | 110 | 9.7 | 0.0 | 0.00 | 0.00 | 0.00 | 26 | 1012.0 |
| 20260503182804 | 22 | 110 | 8.0 | 0.0 | 0.00 | 0.00 | 0.00 | 28 | 1011.0 |
| 20260503175805 | 22 | 110 | 8.0 | 0.0 | 0.00 | 0.00 | 0.00 | 27 | 1011.0 |
| 20260503172804 | 23 | 100 | 4.8 | 0.0 | 0.00 | 0.00 | 0.00 | 29 | 1011.0 |
| 20260503072804 | 16 | 0 | 1.6 | 0.0 | 0.00 | 0.00 | 0.00 | 41 | 1017.0 |
| 20260503052803 | 7 | 0 | 3.2 | 0.0 | 0.00 | 0.00 | 0.00 | 75 | 1017.0 |
| 20260503045804 | 7 | 0 | 0.0 | 0.0 | 0.00 | 0.00 | 0.00 | 81 | 1017.0 |
| 20260503042803 | 6 | 0 | 0.0 | 0.0 | 0.00 | 0.00 | 0.00 | 81 | 1017.0 |
| 20260503035804 | 6 | 0 | 1.6 | 0.0 | 0.00 | 0.00 | 0.00 | 81 | 1017.0 |
| 20260503032804 | 3 | 0 | 0.0 | 0.0 | 0.00 | 0.00 | 0.00 | 93 | 1017.0 |
| 20260503025804 | 6 | 0 | 0.0 | 0.0 | 0.00 | 0.00 | 0.00 | 81 | 1017.0 |
| 20260503022803 | 6 | 0 | 0.0 | 0.0 | 0.00 | 0.00 | 0.00 | 81 | 1017.0 |
| 20260503015804 | 6 | 0 | 0.0 | 0.0 | 0.00 | 0.00 | 0.00 | 81 | 1017.0 |
| 20260503012803 | 7 | 0 | 0.0 | 0.0 | 0.00 | 0.00 | 0.00 | 75 | 1017.0 |
| 20260503005804 | 6 | 0 | 0.0 | 0.0 | 0.00 | 0.00 | 0.00 | 81 | 1017.0 |
| 20260503002803 | 7 | 0 | 0.0 | 0.0 | 0.00 | 0.00 | 0.00 | 70 | 1017.0 |
| 20260502235804 | 10 | 210 | 3.2 | 0.0 | 0.00 | 0.00 | 0.00 | 61 | 1018.0 |
| 20260502232804 | 8 | 0 | 0.0 | 0.0 | 0.00 | 0.00 | 0.00 | 66 | 1018.0 |
| 20260502225804 | 11 | 0 | 1.6 | 0.0 | 0.00 | 0.00 | 0.00 | 53 | 1018.0 |
| 20260502222803 | 11 | 0 | 1.6 | 0.0 | 0.00 | 0.00 | 0.00 | 53 | 1018.0 |
| 20260502215804 | 11 | 0 | 1.6 | 0.0 | 0.00 | 0.00 | 0.00 | 53 | 1018.0 |
| 20260502212804 | 12 | 0 | 3.2 | 0.0 | 0.00 | 0.00 | 0.00 | 43 | 1018.0 |
| 20260502205805 | 13 | 0 | 0.0 | 0.0 | 0.00 | 0.00 | 0.00 | 41 | 1018.0 |
| 20260502202904 | 17 | 0 | 3.2 | 0.0 | 0.00 | 0.00 | 0.00 | 33 | 1018.0 |